Regional Weather Roundup
Issued by NWS

Home | Current Version | Previous Version | Graphics & Text | Print | Product List | Glossary On
Versions: 1 2 3 4 5 6 7 8 9 10 11 12 13 14 15 16 17 18 19 20 21 22 23 24 25 26 27 28 29 30 31 32 33 34 35 36 37 38 39 40 41 42 43 44 45 46 47 48 49 50
000
ASUS43 KDTX 220001
RWRMI
MICHIGAN HOURLY REGIONAL WEATHER ROUNDUP
NATIONAL WEATHER SERVICE DETROIT/PONTIAC MI
800 PM EDT THU AUG 21 2014

NOTE: "FAIR" INDICATES FEW OR NO CLOUDS BELOW 12,000 FEET WITH NO
SIGNIFICANT WEATHER AND/OR OBSTRUCTION TO VISIBILITY.

MIZ047>049-052>055-059>063-066>070-074>076-081>083-220100-
SOUTHEAST LOWER MICHIGAN

CITY           SKY/WX    TMP DP  RH WIND       PRES   REMARKS
ADRIAN         MOCLDY    77  70  79 SW6       29.98F
6HR MIN TEMP:  77; 6HR MAX TEMP:  83; 6HR PCP: TRACE;

ALMA           CLOUDY    73  69  85 SE3       29.96F
ANN ARBOR      CLOUDY    75  70  84 CALM      29.96R
BAD AXE        MOCLDY    66  65  95 CALM      29.99F
6HR MIN TEMP:  66; 6HR MAX TEMP:  76;

CARO           CLOUDY    71  65  82 NE5       29.97S
DETROIT CITY   CLOUDY    77  70  79 S3        29.95F
6HR MIN TEMP:  74; 6HR MAX TEMP:  83; 6HR PCP:  0.25;

DETROIT        LGT RAIN  77  70  79 SW10      29.96S
6HR MIN TEMP:  77; 6HR MAX TEMP:  81; 6HR PCP: TRACE;

FLINT          CLOUDY    78  66  66 NE8       29.96S
6HR MIN TEMP:  78; 6HR MAX TEMP:  82;

GROSSE ILE     LGT RAIN  75  72  88 SW3       29.94S
HILLSDALE      MOCLDY    76  72  88 SW5       29.99S
HOWELL         MOCLDY    73  68  82 SW5       29.97R
6HR MIN TEMP:  73; 6HR MAX TEMP:  79;


CITY           SKY/WX    TMP DP  RH WIND       PRES   REMARKS
JACKSON        CLOUDY    74  71  91 W5        29.98R
6HR MIN TEMP:  74; 6HR MAX TEMP:  81; 6HR PCP:  0.02;

LAMBERTVILLE   MOCLDY    77  70  78 SW7       29.98R
LANSING        MOCLDY    76  70  82 NE3       29.97S
6HR MIN TEMP:  76; 6HR MAX TEMP:  79; 6HR PCP:  0.01;

LAPEER         FAIR      74  67  79 CALM      29.97F
MASON          CLOUDY    73  69  89 CALM      29.97R
MONROE         CLOUDY    77  70  78 SW6       29.94S
MT. CLEMENS    CLOUDY    74  67  77 E5        29.94F
6HR MIN TEMP:  74; 6HR MAX TEMP:  78;

PONTIAC        CLOUDY    77  67  71 N6        29.96S
6HR MIN TEMP:  76; 6HR MAX TEMP:  80;

PORT HOPE        N/A     67  61  81 SE3       29.97F
6HR MIN TEMP:  67; 6HR MAX TEMP:  70;

PORT HURON     MOCLDY    72  68  88 NE10      29.97S
TRI CITIES     CLOUDY    74  66  76 CALM      29.97S
6HR MIN TEMP:  74; 6HR MAX TEMP:  79;

TROY           CLOUDY    79  68  68 CALM      29.97S
SAGINAW HB     CLOUDY    72  68  88 E5        29.96S
$$
MIZ043>046-050>051-056>058-064>065-071>073-077>080-220100-
SOUTHWEST LOWER MICHIGAN

CITY           SKY/WX    TMP DP  RH WIND       PRES   REMARKS
BATTLE CREEK   CLOUDY    76  70  82 W6        29.98S
6HR MIN TEMP:  76; 6HR MAX TEMP:  82; 6HR PCP:  0.08;

BENTON HARBOR  MOCLDY    75  72  90 SE7       29.92F
6HR MIN TEMP:  73; 6HR MAX TEMP:  79; 6HR PCP:  0.03;

BIG RAPIDS     CLOUDY    72  68  89 S5        29.96S
6HR MIN TEMP:  72; 6HR MAX TEMP:  76;

COLDWATER      MOCLDY    77  70  79 CALM      29.97F
6HR MIN TEMP:  77; 6HR MAX TEMP:  81;

FREMONT        MOCLDY    73  71  95 CALM      29.95S
6HR MIN TEMP:  71; 6HR MAX TEMP:  77;

HOLLAND        MOCLDY    76  70  82 SE3       29.96R
6HR MIN TEMP:  74; 6HR MAX TEMP:  81; 6HR PCP:  0.01;

GRAND RAPIDS   MOCLDY    76  73  91 SW10      29.96R
6HR MIN TEMP:  76; 6HR MAX TEMP:  80; 6HR PCP: TRACE;

IONIA          FAIR      73  69  88 CALM      29.96S
KALAMAZOO      CLOUDY    77  71  82 CALM      29.96F
6HR MIN TEMP:  76; 6HR MAX TEMP:  82; 6HR PCP:  0.03;

LUDINGTON      CLOUDY    74  72  91 CALM      29.95S
6HR MIN TEMP:  69; 6HR MAX TEMP:  76; 6HR PCP:  0.02;

MARSHALL       CLOUDY    75  71  87 CALM      29.97R
MOUNT PLEASANT CLOUDY    73  66  78 CALM      29.96S
6HR MIN TEMP:  73; 6HR MAX TEMP:  76;

MUSKEGON       MOCLDY    73  69  87 S5        29.95S FOG
6HR MIN TEMP:  72; 6HR MAX TEMP:  79; 6HR PCP:  0.09;

SOUTH HAVEN    MOCLDY    76  73  91 E5        29.93F
$$
MIZ016>042-220100-
NORTHERN LOWER MICHIGAN

CITY           SKY/WX    TMP DP  RH WIND       PRES   REMARKS
ALPENA         CLEAR     66  63  90 CALM      29.98F
6HR MIN TEMP:  66; 6HR MAX TEMP:  73;

BEAVER ISLAND  PTCLDY    69  62  78 E5        29.97S
6HR MIN TEMP:  68; 6HR MAX TEMP:  74;

BELLAIRE       MOCLDY    70  64  80 CALM      29.95S
6HR MIN TEMP:  70; 6HR MAX TEMP:  75;

CADILLAC       MOCLDY    73  65  78 E3        29.97S
CHARLEVOIX     PTCLDY    69  62  81 N3        29.99S
6HR MIN TEMP:  68; 6HR MAX TEMP:  73;

FRANKFORT      CLOUDY    74  66  75 CALM      29.94S
GAYLORD        PTCLDY    70  61  73 CALM      29.98F
6HR MIN TEMP:  70; 6HR MAX TEMP:  74;

GRAYLING       MOCLDY    74  66  75 NE3       29.98F
6HR MIN TEMP:  74; 6HR MAX TEMP:  77;

HARBOR SPRINGS PTCLDY    71  64  77 E6        29.96F
HOUGHTON LAKE  CLOUDY    73  65  75 E3        29.98S
6HR MIN TEMP:  73; 6HR MAX TEMP:  79;

MANISTEE       CLOUDY    73  64  73 SE3       29.95S
OSCODA         PTCLDY    67  62  84 SE5       29.97F
PELLSTON       PTCLDY    72  64  76 E5        29.97F
6HR MIN TEMP:  71; 6HR MAX TEMP:  76;

ROGERS CITY    CLEAR     65  64  94 CALM      29.99F
TRAVERSE CITY  CLOUDY    71  63  75 N7        29.94S
6HR MIN TEMP:  71; 6HR MAX TEMP:  77;

$$
MIZ007>008-015-220100-
EASTERN UPPER MICHIGAN

CITY           SKY/WX    TMP DP  RH WIND       PRES   REMARKS
KINROSS        CLOUDY    70  64  83 CALM      29.98S
6HR MIN TEMP:  70; 6HR MAX TEMP:  73;

MACKINAC ISLAN CLEAR     66  63  89 CALM      29.97F
6HR MIN TEMP:  66; 6HR MAX TEMP:  72;

NEWBERRY       PTCLDY    67  60  80 CALM      29.97F
S. S. MARIE    CLOUDY    69  63  81 SW3       29.97S
6HR MIN TEMP:  69; 6HR MAX TEMP:  76;

$$
MIZ004>006-011>014-085-220100-
CENTRAL UPPER MICHIGAN

CITY           SKY/WX    TMP DP  RH WIND       PRES   REMARKS
MANISTIQUE     PTCLDY    65  62  89 CALM      29.95F
ESCANABA       MOCLDY    66  61  82 S3        29.96S
6HR MIN TEMP:  66; 6HR MAX TEMP:  70;

MENOMINEE      CLOUDY    70  61  73 SE6       29.94F
6HR MIN TEMP:  68; 6HR MAX TEMP:  70;

SAWYER-GWINN   MOCLDY    68  63  83 S7        29.97S
$$
MIZ001>003-009>011-084-220100-
WESTERN UPPER MICHIGAN

CITY           SKY/WX    TMP DP  RH WIND       PRES   REMARKS
IRON MOUNTAIN  CLOUDY    67  64  90 SE7       29.95S
6HR MIN TEMP:  67; 6HR MAX TEMP:  69; 6HR PCP: TRACE;

HOUGHTON       FOG       58  56  93 E9        29.95R VSB 3/4
6HR MIN TEMP:  58; 6HR MAX TEMP:  67;

COPPER HARBOR    N/A     61  58  90 VRB3      29.95S
6HR MIN TEMP:  58; 6HR MAX TEMP:  65;

IRONWOOD       CLOUDY    72  66  83 SE8       29.88S
6HR MIN TEMP:  72; 6HR MAX TEMP:  73;

$$

ABBREVIATIONS USED IN REMARKS
   TC - TEMPERATURE IN CELSIUS
  WCI - WIND CHILL INDEX
   HX - HEAT INDEX
  VSB - VISIBILITY



USA.gov is the U.S. government's official web portal to all federal, state and local government web resources and services.